This is the latest recevied weather packets stored in our database for station/object SQ5AAG-2. If no packets are shown the sender has not sent any weather packets the latest 10 day(s).
| Time | Temp. | Humidity | Pressure | Rain* | Wind** | Luminosity | Snow |
|---|---|---|---|---|---|---|---|
| 1787572881 | 17.22° C | 73% | 1005.8 hPa | 0 mm | - | - | - |
| 1787572583 | 17.22° C | 73% | 1005.9 hPa | 0 mm | - | - | - |
| 1787572328 | 17.22° C | 71% | 1005.8 hPa | 0 mm | - | - | - |
| 1787572280 | 17.22° C | 71% | 1005.8 hPa | 0 mm | - | - | - |
| 1787572015 | 17.78° C | 71% | 1005.8 hPa | 0 mm | - | - | - |
| 1787571980 | 17.78° C | 71% | 1005.8 hPa | 0 mm | - | - | - |
| 1787571682 | 18.33° C | 70% | 1006 hPa | 0 mm | - | - | - |
| 1787571380 | 18.89° C | 70% | 1005.7 hPa | 0 mm | - | - | - |
| 1787571080 | 18.33° C | 72% | 1005.7 hPa | 0 mm | - | - | - |
| 1787570816 | 18.33° C | 72% | 1006 hPa | 0.51 mm | - | - | - |
| 1787570779 | 18.33° C | 72% | 1006 hPa | 0.51 mm | - | - | - |
| 1787570478 | 17.78° C | 73% | 1005.7 hPa | 0.51 mm | - | - | - |
| 1787570178 | 17.78° C | 76% | 1005.7 hPa | 0.51 mm | - | - | - |
| 1787569878 | 17.22° C | 77% | 1005.8 hPa | 0.51 mm | - | - | - |
| 1787569577 | 16.67° C | 78% | 1005.7 hPa | 0.51 mm | - | - | - |
| 1787569277 | 16.67° C | 77% | 1005.7 hPa | 0.51 mm | - | - | - |
| 1787568977 | 16.67° C | 77% | 1005.7 hPa | 0.51 mm | - | - | - |
| 1787568677 | 16.67° C | 77% | 1005.8 hPa | 0.51 mm | - | - | - |
| 1787568376 | 16.67° C | 77% | 1005.7 hPa | 0.51 mm | - | - | - |
| 1787568118 | 16.67° C | 77% | 1005.7 hPa | 0.51 mm | - | - | - |
| 1787568076 | 16.67° C | 77% | 1005.7 hPa | 0.51 mm | - | - | - |
| 1787567776 | 16.67° C | 77% | 1005.6 hPa | 0.51 mm | - | - | - |
| 1787567475 | 16.11° C | 77% | 1005.8 hPa | 0 mm | - | - | - |
| 1787567176 | 16.11° C | 77% | 1005.6 hPa | 0 mm | - | - | - |
| 1787566939 | 16.11° C | 77% | 1005.7 hPa | 0 mm | - | - | - |
* Rain latest hour (hover to see other rain measurements)
** Current wind speed in m/s (hover to see current wind gust speed)